Location: Haliburton Scout Reserve
(45.0900°N, 78.3200°W)
Time: 21:35:10
(UTC-04:00)

CAS-4B - Pass Details

Date: 31 May 2022
Orbit: 523 x 537 km, 43.0° (Epoch: 28 June)

Event Time Altitude Azimuth Distance (km) Brightness Sun altitude
Rises 21:28:57 0° 276° (W) 2,663 ? -6.0°
Reaches altitude 10° 21:31:32 10° 261° (W) 1,768 ? -6.4°
Maximum altitude 21:34:43 22° 209° (SSW) 1,167 ? -6.8°
Drops below altitude 10° 21:37:52 10° 157° (SSE) 1,755 ? -7.2°
Enters shadow 21:38:25 - 152° (SSE) 1,934 ? -7.3°
